HB9BHU-8 Weather Reports


Display with metric or nautical units.
time (UTC)temp
F
wind
direction
speed
MPH
gust
MPH
rain 1hr
in
rain 24hr
in
rain mn
in
humidity
%
barometer
mb
20260505180031 58 190 5.0 7.0 0.00 0.00 0.00 83 1011.5
20260505174531 58 192 2.0 9.0 0.00 0.00 0.00 86 1011.4
20260505173031 57 172 2.0 8.0 0.00 0.00 0.00 86 1011.5
20260505171530 57 157 3.0 7.0 0.00 0.00 0.00 87 1011.3
20260505170036 56 182 5.0 10.0 0.00 0.00 0.00 88 1011.3
20260505164534 56 179 3.0 7.0 0.00 0.00 0.00 88 1011.1
20260505163029 56 211 3.0 7.0 0.00 0.00 0.00 88 1011.2
20260505161528 56 215 2.0 8.0 0.00 0.00 0.00 88 1011.4
20260505153027 56 221 9.0 17.0 0.00 0.00 0.00 85 1011.4
20260505151533 56 219 14.0 20.0 0.00 0.00 0.00 84 1011.3
20260505124518 60 234 6.0 9.0 0.00 0.00 0.00 83 1011.0
20260505123015 60 198 0.0 3.0 0.00 0.00 0.00 86 1011.1
20260505121511 59 242 0.0 5.0 0.00 0.00 0.00 88 1011.1
20260505120014 58 233 1.0 6.0 0.00 0.00 0.00 87 1011.1
20260505114505 57 240 0.0 4.0 0.00 0.00 0.00 91 1011.1
20260505113003 56 240 0.0 2.0 0.00 0.00 0.00 92 1011.3
20260505111502 56 246 0.0 4.0 0.00 0.00 0.00 92 1011.2
20260505101558 55 241 0.0 0.0 0.00 0.00 0.00 91 1011.6
20260505100055 55 240 0.0 0.0 0.00 0.00 0.00 92 1011.4
20260505094600 55 240 0.0 0.0 0.00 0.00 0.00 93 1011.4
20260505093055 54 240 0.0 0.0 0.00 0.00 0.00 94 1011.4
20260505091550 54 236 1.0 4.0 0.00 0.00 0.00 93 1011.3
20260505090055 54 311 0.0 4.0 0.00 0.00 0.00 94 1011.3
20260505084545 54 190 0.0 0.0 0.00 0.00 0.00 95 1011.5
20260505083100 53 190 0.0 0.0 0.00 0.00 0.00 95 1011.5
20260505081539 53 200 0.0 2.0 0.00 0.00 0.00 95 1011.8
20260505080042 52 232 0.0 6.0 0.00 0.00 0.00 96 1011.8
20260505074536 52 355 0.0 1.0 0.00 0.00 0.00 96 1012.0
20260505073032 52 355 0.0 2.0 0.00 0.00 0.00 96 1012.3
20260505071533 51 284 0.0 0.0 0.00 0.00 0.00 96 1012.4
20260505070030 51 284 0.0 4.0 0.00 0.00 0.00 96 1012.5
20260505064529 51 267 0.0 3.0 0.00 0.00 0.00 96 1012.6
20260505063028 50 267 0.0 0.0 0.00 0.00 0.00 96 1012.7
20260505061529 50 268 0.0 3.0 0.00 0.00 0.00 97 1012.8
20260505060027 50 263 0.0 0.0 0.00 0.00 0.00 97 1012.8
20260505054540 50 237 0.0 0.0 0.00 0.00 0.00 97 1012.8
20260505053026 49 236 0.0 5.0 0.00 0.00 0.00 97 1012.6
20260505051522 49 127 0.0 0.0 0.00 0.00 0.00 97 1012.5
20260505041515 48 127 0.0 0.0 0.00 0.00 0.00 96 1012.6
20260505040019 48 126 0.0 2.0 0.00 0.00 0.00 96 1012.8
20260505034616 48 128 0.0 0.0 0.00 0.00 0.00 96 1012.6
20260505033013 48 128 0.0 0.0 0.00 0.00 0.00 96 1012.6
20260505031507 48 128 0.0 0.0 0.00 0.00 0.00 96 1012.7
20260505030013 48 128 0.0 0.0 0.00 0.00 0.00 96 1012.8
20260505024504 48 128 0.0 4.0 0.00 0.00 0.00 96 1012.9
20260505023004 49 136 0.0 4.0 0.00 0.00 0.00 96 1013.0
20260505021504 49 128 2.0 8.0 0.00 0.00 0.00 96 1013.0
20260505020003 48 136 0.0 3.0 0.00 0.00 0.00 96 1013.1
20260505014500 48 128 2.0 6.0 0.00 0.00 0.00 96 1013.2
20260505013103 49 124 1.0 4.0 0.00 0.00 0.00 96 1013.2
20260505011611 49 124 1.0 4.0 0.00 0.00 0.00 96 1013.3
20260505010106 48 125 2.0 4.0 0.00 0.00 0.00 96 1013.6
20260505004557 49 121 0.0 3.0 0.00 0.00 0.00 96 1013.7
20260505004512 49 121 0.0 3.0 0.00 0.00 0.00 96 1013.8
20260505003053 49 121 0.0 0.0 0.00 0.00 0.00 95 1014.0
20260505001553 49 123 0.0 6.0 0.00 0.00 0.00 95 1014.1
20260505000057 49 121 4.0 5.0 0.00 0.00 0.00 95 1014.2
20260504234555 49 138 3.0 6.0 0.00 0.00 0.00 95 1014.4
20260504233046 49 119 3.0 5.0 0.00 0.00 0.00 95 1014.5
20260504231543 50 123 2.0 7.0 0.00 0.00 0.00 95 1014.7
20260504230041 50 111 4.0 5.0 0.00 0.00 0.00 95 1014.8
20260504224541 50 117 2.0 4.0 0.00 0.00 0.00 95 1014.9
20260504223039 50 119 2.0 6.0 0.00 0.00 0.00 94 1014.9
20260504221539 50 121 1.0 5.0 0.00 0.00 0.00 94 1015.0
20260504220045 51 135 3.0 8.0 0.00 0.00 0.00 94 1015.1
20260504214535 51 111 2.0 4.0 0.00 0.00 0.00 93 1015.0
20260504213039 52 112 2.0 3.0 0.00 0.00 0.00 92 1015.2
20260504211537 53 168 1.0 3.0 0.00 0.00 0.00 91 1015.3
20260504210028 53 174 0.0 0.0 0.00 0.00 0.00 90 1015.5
20260504204537 53 175 0.0 1.0 0.00 0.00 0.00 90 1015.7
20260504203028 53 324 0.0 0.0 0.00 0.00 0.00 90 1015.7
20260504201527 54 321 0.0 0.0 0.00 0.00 0.00 89 1015.8
20260504200027 54 321 0.0 0.0 0.00 0.00 0.00 89 1015.7
20260504194526 54 323 0.0 0.0 0.00 0.00 0.00 89 1015.6
20260504193026 54 195 0.0 0.0 0.00 0.00 0.00 88 1015.5
20260504191527 54 194 0.0 0.0 0.00 0.00 0.00 87 1015.5
20260504190029 54 194 0.0 0.0 0.00 0.00 0.00 88 1015.5
20260504184525 54 194 0.0 4.0 0.00 0.00 0.00 88 1015.5
20260504183024 54 225 0.0 0.0 0.00 0.00 0.00 89 1015.5
20260504181523 55 233 0.0 0.0 0.00 0.00 0.00 90 1015.7